588  
NZUS99 KSGF 281007  
HRRSGF  
 
HOURLY WEATHER  
NATIONAL WEATHER SERVICE SPRINGFIELD MO  
500 AM CDT SUN MAY 28 2017  
   
.....SGF CWA...
 
 
 
CITY SKY/WX TMP DP RH WIND PRES REMARKS  
SPRINGFIELD CLOUDY 63 62 97 N10 29.80F  
JOPLIN CLOUDY 64 62 93 N6 29.81F  
WEST PLAINS CLOUDY 62 61 96 SW5 29.84R  
ROLLA CLOUDY 57 57 100 CALM 29.77F  
OSAGE BEACH FOG 60 60 100 W5 29.81R VSB 1/4  
BRANSON CLOUDY 63 63 100 CALM 29.85R  
   
.....SURROUNDING SGF CWA...
 
 
 
CITY SKY/WX TMP DP RH WIND PRES REMARKS  
CHANUTE CLOUDY 63 59 87 N10 29.85S  
PARSONS CLOUDY 64 60 87 N14 29.85R  
COFFEYVILLE CLOUDY 65 65 100 N9G21 29.84R  
EMPORIA CLEAR 60 59 96 N9 29.88F  
GROVE OK CLOUDY 64 63 94 CALM 29.83R  
ROGERS AR CLOUDY 63 62 97 E5 29.82F  
SILOAM SPRINGS CLOUDY 64 57 77 NE3 29.81R  
HARRISON AR HVY RAIN 64 63 96 SE8 29.81F FOG  
NEAR YELLVILLE CLOUDY 64 59 82 N3 29.82R  
   
.....KANSAS AND MISSOURI...
 
 
 
CITY SKY/WX TMP DP RH WIND PRES REMARKS  
KANSAS CTY INT PTCLDY 58 57 97 NW8 29.86F  
DOWNTOWN KC CLOUDY 61 59 93 NW5 29.85F  
COLUMBIA CLOUDY 60 60 100 NW6 29.79R  
SEDALIA CLOUDY 63 63 100 NW10 29.84R  
ST JOSEPH CLEAR 59 58 96 N9 29.87F  
ST LOUIS CLOUDY 65 60 84 W7 29.77R  
SPIRIT OF STL CLOUDY 61 60 97 CALM 29.76S  
KIRKSVILLE CLOUDY 58 56 93 NW8 29.81F  
WICHITA PTCLDY 61 57 87 N13 29.93R  
TOPEKA CLEAR 60 59 96 NW7 29.88F  
OLATHE CLOUDY 59 59 100 NW8 29.85F  
   
.....TENNESSEE...
 
 
 
CITY SKY/WX TMP DP RH WIND PRES REMARKS  
MEMPHIS TSTM 65 63 93 S12 29.99R  
NASHVILLE CLOUDY 65 62 90 S6 29.85R  
   
.....ARKANSAS....
 
 
 
CITY SKY/WX TMP DP RH WIND PRES REMARKS  
FAYETTEVILLE CLOUDY 65 65 100 N5 29.82R  
FT SMITH CLOUDY 71 65 81 CALM 29.78S  
LITTLE ROCK TSTM 64 64 100 SE16G25 29.96S FOG  
   
.....OKLAHOMA....
 
 
 
CITY SKY/WX TMP DP RH WIND PRES REMARKS  
TULSA CLOUDY 65 62 90 NW5 29.84R  
PONCA CITY CLEAR 64 60 87 NW7 29.92R  
MCALESTER CLOUDY 71 66 84 CALM 29.83R  
OKLAHOMA CITY CLOUDY 65 61 87 N13 29.91R  
   
.....IOWA.........
 
 
 
CITY SKY/WX TMP DP RH WIND PRES REMARKS  
DES MOINES PTCLDY 57 54 89 W6 29.84F  
QUAD CITIES MOCLDY 61 59 93 W3 29.74S FOG  
   
.....ILLINOIS.....
 
 
 
CITY SKY/WX TMP DP RH WIND PRES REMARKS  
QUINCY CLOUDY 63 62 97 NW10 29.76R FOG  
CHICAGO MOCLDY 57 52 83 CALM 29.74F  
 
CLICK HERE TO GO TO PREVIOUS BULLETINS.

The Nexlab MO Page
The Nexlab KS Page Main Text Page